Location: Follega
(52.8850°N, 5.7362°E)
Time: 22:51:46
(UTC+00:00)

Cosmos 2297 Rocket - Pass Details

Date: 06 October 2020
Orbit: 838 x 845 km, 71.0° (Epoch: 22 October)

Event Time Altitude Azimuth Distance (km) Brightness Sun altitude
Rises 21:32:50 0° 328° (NNW) 3,417 6.3 -37.4°
Reaches altitude 10° 21:35:18 10° 330° (NNW) 2,479 5.4 -37.6°
Enters shadow 21:38:05 30° 333° (NNW) 1,476 3.8 -37.9°
